1499126400.86,43552,16.25,74002.0,-2.55,-31.01,-33.61,0,*53
1499126402.11,43553,16.25,73998.0,-2.55,-30.61,-33.03,0,*51
1499126403.33,43554,16.25,73988.8,-2.53,-29.95,-32.39,0,*5B
1499126404.52,43555,16.25,73990.0,-2.53,-30.23,-32.57,0,*57
1499126405.74,43556,16.25,73986.3,-2.53,-30.11,-32.51,0,*53
1499126406.96,43557,16.25,73994.8,-2.53,-30.55,-32.91,0,*5E
1499126408.22,43558,16.25,74008.8,-2.53,-30.89,-33.31,0,*5B
1499126409.48,43559,16.25,74010.5,-2.53,-30.77,-33.31,0,*5B
1499126410.69,43560,16.25,73998.5,-2.53,-30.27,-32.69,0,*58
1499126411.89,43561,16.25,73988.5,-2.53,-30.11,-32.57,0,*51
1499126413.12,43562,16.25,73982.0,-2.51,-30.67,-33.15,0,*56
1499126414.38,43563,16.25,73992.5,-2.51,-30.73,-33.15,0,*52
1499126415.65,43564,16.25,73994.3,-2.51,-30.55,-32.85,0,*59
1499126416.93,43565,16.25,74004.3,-2.51,-30.51,-32.85,0,*5C
1499126418.18,43566,16.25,73992.8,-2.51,-30.55,-33.15,0,*53
1499126419.44,43567,16.25,73980.0,-2.51,-30.67,-33.27,0,*52
1499126420.72,43568,16.25,73998.8,-2.51,-30.01,-32.85,0,*54
1499126421.97,43569,16.25,73988.0,-2.51,-30.51,-32.69,0,*52
1499126423.21,43570,16.25,73984.0,-2.49,-29.83,-31.23,0,*59
1499126424.49,43571,16.25,73976.3,-2.51,-27.39,-28.47,0,*54
1499126425.7,43572,16.25,73976.8,-2.49,-29.83,-30.33,0,*5B
1499126426.94,43573,16.25,73980.3,-2.49,-29.51,-29.61,0,*5A
1499126428.22,43574,16.25,73984.8,-2.51,-28.63,-28.47,0,*51
1499126429.44,43575,16.25,73974.5,-2.49,-27.45,-27.77,0,*5E
1499126430.66,43576,16.25,73956.5,-2.49,-24.93,-28.47,0,*59
1499126431.89,43577,16.25,73964.5,-2.51,-27.29,-32.01,0,*5A
1499126433.12,43578,16.25,73984.3,-2.49,-29.01,-33.03,0,*5B
1499126434.38,43579,16.25,73986.5,-2.51,-30.33,-33.27,0,*5C
1499126435.61,43580,16.25,73982.3,-2.51,-30.83,-33.37,0,*50
1499126436.9,43581,16.25,73988.8,-2.51,-30.95,-33.43,0,*55
1499126438.11,43582,16.25,73984.0,-2.49,-30.83,-33.37,0,*5B
1499126439.37,43583,16.25,73992.0,-2.51,-30.73,-33.37,0,*5C
1499126440.6,43584,16.25,73990.5,-2.49,-30.83,-33.43,0,*5E
1499126441.8,43585,16.25,73990.5,-2.49,-31.05,-33.55,0,*57
1499126443.06,43586,16.25,73990.0,-2.49,-30.95,-33.43,0,*5B
1499126444.31,43587,16.25,73990.8,-2.49,-31.23,-33.73,0,*55
1499126445.6,43588,16.25,73988.0,-2.51,-31.23,-33.77,0,*57
1499126446.85,43589,16.25,73990.3,-2.49,-31.11,-33.77,0,*5E
1499126448.1,43590,16.25,73992.5,-2.51,-31.05,-33.77,0,*5A
1499126449.38,43591,16.25,73992.5,-2.51,-31.23,-33.61,0,*58
1499126450.61,43592,16.25,73998.0,-2.51,-31.05,-33.37,0,*5C
1499126451.85,43593,16.25,73988.3,-2.51,-30.83,-33.37,0,*52
1499126453.1,43594,16.25,73976.0,-2.53,-30.77,-33.49,0,*55
1499126454.34,43595,16.25,73948.3,-2.53,-31.11,-33.67,0,*59
1499126455.59,43596,16.25,73976.3,-2.51,-30.95,-33.55,0,*54
1499126456.85,43597,16.25,73976.5,-2.53,-30.77,-33.43,0,*5C
1499126458.08,43598,16.25,73982.0,-2.53,-30.61,-33.03,0,*50
1499126459.34,43599,16.25,73980.8,-2.53,-30.61,-33.09,0,*5B
1499126460.61,43600,16.25,73970.3,-2.51,-30.55,-32.79,0,*5B
1499126461.84,43601,16.25,73962.8,-2.51,-30.33,-32.13,0,*56
1499126463.09,43602,16.25,73958.0,-2.51,-28.47,-30.83,0,*54
1499126464.33,43603,16.25,73962.5,-2.51,-26.65,-27.29,0,*5D
1499126465.59,43604,16.25,73978.3,-2.51,-23.19,-23.13,0,*59
1499126466.83,43605,16.25,73974.8,-2.49,-22.53,-25.29,0,*51
1499126468.04,43606,16.25,73978.3,-2.49,-27.29,-30.33,0,*55
1499126469.27,43607,16.25,73970.0,-2.45,-27.67,-29.13,0,*58
1499126470.53,43608,16.25,73964.0,-2.49,-27.61,-31.61,0,*51
1499126471.73,43609,16.25,73972.5,-2.49,-29.45,-32.01,0,*5D
1499126472.97,43610,16.25,73982.8,-2.49,-29.67,-32.63,0,*51
1499126474.2,43611,16.25,73998.3,-2.49,-29.61,-33.27,0,*57
1499126475.4,43612,16.25,73990.3,-2.49,-30.23,-33.37,0,*5B
1499126476.66,43613,16.25,73972.3,-2.49,-30.95,-33.73,0,*57
1499126477.87,43614,16.25,73964.5,-2.49,-30.67,-33.37,0,*5D
1499126479.09,43615,16.25,73984.8,-2.49,-30.55,-33.03,0,*5A
1499126480.33,43616,16.25,74006.0,-2.49,-30.51,-32.97,0,*51
1499126481.56,43617,16.25,74002.3,-2.49,-30.73,-33.15,0,*5B
1499126482.79,43618,16.25,73998.0,-2.49,-30.89,-33.37,0,*51
1499126484.02,43619,16.25,73972.5,-2.49,-30.95,-33.55,0,*59
1499126485.27,43620,16.25,73986.0,-2.49,-30.73,-33.27,0,*5E
1499126486.52,43621,16.25,73994.0,-2.49,-30.51,-32.79,0,*55
1499126487.77,43622,16.25,74010.3,-2.49,-30.55,-31.91,0,*57
1499126489.02,43623,16.25,74020.5,-2.49,-29.29,-30.51,0,*58
1499126490.25,43624,16.25,73996.3,-2.49,-28.63,-32.13,0,*54
1499126491.48,43625,16.25,73988.0,-2.49,-29.29,-32.35,0,*5E
1499126492.7,43626,16.25,73978.3,-2.49,-30.51,-33.03,0,*5E
1499126493.96,43627,16.25,73974.5,-2.45,-30.61,-33.09,0,*5A
1499126495.16,43628,16.25,73970.5,-2.45,-30.67,-33.21,0,*59
1499126496.36,43629,16.25,73984.8,-2.45,-31.01,-33.55,0,*5A
1499126497.59,43630,16.25,73990.8,-2.45,-30.89,-33.55,0,*53
1499126498.85,43631,16.25,73986.3,-2.45,-30.89,-33.49,0,*5F
1499126500.08,43632,16.25,73986.5,-2.45,-30.89,-33.37,0,*55
1499126501.31,43633,16.25,73988.8,-2.45,-30.89,-33.55,0,*50
1499126502.57,43634,16.25,74000.3,-2.45,-30.89,-33.49,0,*5A
1499126503.82,43635,16.25,74004.3,-2.51,-30.89,-33.37,0,*57
1499126505.08,43636,16.25,74010.8,-2.45,-30.77,-33.31,0,*56
1499126506.29,43637,16.25,74010.5,-2.45,-30.83,-33.37,0,*5A
1499126507.5,43638,16.25,74014.5,-2.45,-31.01,-33.67,0,*5B
1499126508.7,43639,16.25,74012.3,-2.45,-31.05,-33.67,0,*5E
1499126509.98,43640,16.25,74008.8,-2.51,-31.23,-33.61,0,*57
1499126511.2,43641,16.25,74008.3,-2.49,-31.05,-33.61,0,*5B
1499126512.39,43642,16.25,74008.5,-2.49,-31.05,-33.55,0,*5F
1499126513.63,43643,16.25,74008.5,-2.51,-30.23,-32.51,0,*57
1499126514.88,43644,16.25,73992.8,-2.49,-30.17,-32.63,0,*5F
1499126516.13,43645,16.25,73978.8,-2.49,-30.51,-32.97,0,*57
1499126517.38,43646,16.25,73984.5,-2.49,-30.89,-33.27,0,*5B
1499126518.64,43647,16.25,73984.5,-2.45,-31.23,-33.73,0,*56
1499126519.87,43648,16.25,73976.0,-2.49,-31.05,-33.73,0,*51
1499126521.09,43649,16.25,73978.5,-2.45,-30.61,-33.21,0,*58
1499126522.35,43650,16.25,73972.3,-2.43,-30.51,-32.97,0,*59
1499126523.61,43651,16.25,73978.0,-2.45,-30.77,-33.31,0,*57
1499126524.81,43652,16.25,73986.5,-2.45,-30.83,-33.21,0,*5E
1499126526.05,43653,16.25,73984.8,-2.45,-30.83,-33.31,0,*5E
1499126527.28,43654,16.25,73990.3,-2.45,-30.67,-33.09,0,*58
1499126528.52,43655,16.25,74000.0,-2.43,-30.33,-32.75,0,*54
1499126529.75,43656,16.25,74004.5,-2.45,-30.67,-32.97,0,*5C
1499126530.96,43657,16.25,73978.5,-2.45,-30.67,-32.91,0,*5B
1499126532.19,43658,16.25,73992.3,-2.45,-30.89,-33.37,0,*59
1499126533.4,43659,16.25,73992.0,-2.45,-30.67,-33.21,0,*5F
1499126534.61,43660,16.25,73990.5,-2.45,-30.67,-33.21,0,*55
1499126535.87,43661,16.25,73998.5,-2.43,-30.89,-33.31,0,*53
1499126537.08,43662,16.25,74004.0,-2.45,-31.01,-33.37,0,*51
1499126538.28,43663,16.25,74002.3,-2.45,-31.01,-33.55,0,*54
1499126539.48,43664,16.25,74006.8,-2.45,-31.05,-33.67,0,*56
1499126540.71,43665,16.25,74000.3,-2.45,-31.01,-33.49,0,*5F
1499126541.91,43666,16.25,74008.0,-2.45,-31.17,-33.55,0,*56
1499126543.14,43667,16.25,74002.3,-2.45,-31.17,-33.49,0,*5A
1499126544.37,43668,16.25,74004.3,-2.45,-30.89,-33.37,0,*5A
1499126545.59,43669,16.25,74000.5,-2.45,-29.95,-32.39,0,*51
1499126546.82,43670,16.25,73998.8,-2.43,-30.01,-32.39,0,*5A
1499126548.04,43671,16.25,73984.3,-2.43,-29.95,-32.39,0,*5E
1499126549.27,43672,16.25,73996.0,-2.45,-30.27,-32.63,0,*55
1499126550.51,43673,16.25,73992.3,-2.43,-30.33,-32.79,0,*5C
1499126551.8,43674,16.25,73980.3,-2.41,-30.73,-33.27,0,*57
1499126553.03,43675,16.25,73968.8,-2.43,-30.89,-33.37,0,*50
1499126554.25,43676,16.25,73990.5,-2.43,-30.83,-33.37,0,*59
1499126555.49,43677,16.25,73986.0,-2.43,-30.67,-33.09,0,*5F
1499126556.7,43678,16.25,73994.0,-2.43,-30.83,-33.21,0,*50
1499126557.93,43679,16.25,73996.3,-2.45,-30.83,-33.31,0,*56
1499126559.17,43680,16.25,74006.5,-2.43,-30.83,-33.49,0,*59
1499126560.43,43681,16.25,74004.8,-2.43,-30.89,-33.31,0,*5D
1499126561.64,43682,16.25,74002.3,-2.43,-31.01,-33.55,0,*5D
1499126562.87,43683,16.25,73988.8,-2.43,-31.01,-33.49,0,*51
1499126564.13,43684,16.25,74000.8,-2.43,-30.77,-33.31,0,*59
1499126565.37,43685,16.25,74010.0,-2.43,-30.67,-33.09,0,*52
1499126566.62,43686,16.25,74008.8,-2.45,-30.61,-32.97,0,*57
1499126567.83,43687,16.25,74012.3,-2.43,-30.67,-33.37,0,*5D
1499126569.05,43688,16.25,74014.3,-2.43,-30.83,-33.37,0,*58
1499126570.26,43689,16.25,74016.5,-2.43,-31.05,-33.67,0,*53
1499126571.48,43690,16.25,74018.0,-2.45,-31.05,-33.73,0,*58
1499126572.72,43691,16.25,74014.8,-2.43,-31.23,-33.67,0,*5E
1499126573.96,43692,16.25,74006.5,-2.43,-30.89,-33.37,0,*59
1499126575.18,43693,16.25,74012.0,-2.43,-31.17,-33.67,0,*5B
1499126576.43,43694,16.25,74008.3,-2.45,-30.77,-33.31,0,*5E
1499126577.69,43695,16.25,74006.5,-2.43,-30.61,-33.09,0,*55
1499126578.92,43696,16.25,74008.8,-2.43,-30.33,-32.63,0,*5C
1499126580.14,43697,16.25,74004.5,-2.43,-29.95,-32.23,0,*5D
1499126581.39,43698,16.25,74010.8,-2.43,-30.61,-32.97,0,*5E
1499126582.65,43699,16.25,74008.8,-2.41,-30.61,-33.15,0,*56
1499126583.87,43700,16.25,74012.8,-2.41,-30.45,-32.91,0,*5C
1499126585.14,43701,16.25,74014.8,-2.41,-29.39,-31.67,0,*54
1499126586.38,43702,16.25,74016.0,-2.39,-29.23,-31.51,0,*56
1499126587.64,43703,16.25,73996.0,-2.39,-27.83,-30.05,0,*53
1499126588.91,43704,16.25,73980.0,-2.37,-29.35,-32.01,0,*5F
1499126590.12,43705,16.25,73974.8,-2.35,-30.67,-33.03,0,*50
1499126591.36,43706,16.25,73966.5,-2.35,-30.27,-32.79,0,*5B
1499126592.6,43707,16.25,73996.5,-2.37,-30.33,-32.39,0,*59
1499126593.82,43708,16.25,73992.3,-2.35,-30.33,-31.73,0,*59
1499126595.09,43709,16.25,73982.0,-2.37,-29.45,-32.45,0,*55
1499126596.33,43710,16.25,73974.8,-2.37,-30.33,-33.21,0,*57
1499126597.62,43711,16.25,73976.5,-2.37,-30.89,-33.43,0,*53
1499126598.88,43712,16.25,73970.0,-2.37,-30.77,-33.37,0,*52
1499126600.14,43713,16.25,73980.5,-2.35,-30.89,-33.49,0,*59
1499126601.4,43714,16.25,73970.8,-2.35,-30.89,-33.31,0,*51
1499126602.61,43715,16.25,73974.3,-2.35,-30.33,-32.91,0,*5A
1499126603.9,43716,16.25,73986.0,-2.37,-30.77,-33.27,0,*57
1499126605.17,43717,16.25,73982.0,-2.35,-30.17,-32.45,0,*57
1499126606.43,43718,16.25,73974.8,-2.33,-30.33,-32.79,0,*57
1499126607.66,43719,16.25,73968.5,-2.35,-30.61,-33.15,0,*5C
1499126608.89,43720,16.25,73972.3,-2.35,-30.77,-33.15,0,*51
1499126610.17,43721,16.25,73980.8,-2.37,-30.55,-33.09,0,*5F
1499126611.41,43722,16.25,73982.0,-2.35,-30.33,-32.75,0,*54
1499126612.64,43723,16.25,73980.8,-2.35,-30.01,-32.39,0,*5C
1499126613.9,43724,16.25,73990.5,-2.35,-30.17,-32.63,0,*53
1499126615.15,43725,16.25,73968.3,-2.35,-29.67,-32.07,0,*5F
1499126616.39,43726,16.25,73982.5,-2.35,-30.27,-32.79,0,*59
1499126617.62,43727,16.25,73988.5,-2.33,-30.45,-32.91,0,*5C
1499126618.88,43728,16.25,73990.0,-2.33,-30.27,-32.63,0,*5A
1499126620.12,43729,16.25,73962.3,-2.33,-29.79,-32.23,0,*5C
1499126621.38,43730,16.25,73966.8,-2.33,-30.11,-32.63,0,*56
1499126622.63,43731,16.25,73974.5,-2.31,-30.55,-32.97,0,*5E
1499126623.89,43732,16.25,73988.3,-2.31,-30.61,-33.09,0,*5C
1499126625.15,43733,16.25,73994.3,-2.33,-30.61,-33.15,0,*52
1499126626.41,43734,16.25,73988.8,-2.33,-30.83,-33.31,0,*5F
1499126627.66,43735,16.25,73998.0,-2.31,-30.83,-33.43,0,*59
1499126628.94,43736,16.25,74000.5,-2.33,-30.73,-33.31,0,*52
1499126630.18,43737,16.25,74004.8,-2.33,-31.05,-33.37,0,*55
1499126631.42,43738,16.25,73970.8,-2.33,-30.83,-33.37,0,*55
1499126632.71,43739,16.25,74002.3,-2.33,-30.73,-33.31,0,*5D
1499126633.94,43740,16.25,74000.5,-2.33,-30.45,-32.91,0,*5D
1499126635.18,43741,16.25,73980.8,-2.31,-30.27,-32.85,0,*5F
1499126636.44,43742,16.25,73984.5,-2.33,-30.73,-33.21,0,*50
1499126637.68,43743,16.25,73990.0,-2.33,-30.83,-33.37,0,*59
1499126638.93,43744,16.25,73992.8,-2.31,-30.67,-33.27,0,*57
1499126640.22,43745,16.25,73992.5,-2.33,-30.73,-33.31,0,*56
1499126641.48,43746,16.25,73992.3,-2.33,-30.89,-33.37,0,*56
1499126642.77,43747,16.25,73996.0,-2.33,-30.89,-33.31,0,*51
1499126644.0,43748,16.25,73998.5,-2.33,-30.67,-33.15,0,*58
1499126645.25,43749,16.25,73996.8,-2.31,-30.83,-33.27,0,*50
1499126646.48,43750,16.25,73996.5,-2.33,-31.05,-33.55,0,*50
1499126647.71,43751,16.25,74000.5,-2.33,-31.01,-33.37,0,*51
1499126648.95,43752,16.25,73998.3,-2.33,-31.01,-33.67,0,*57
1499126650.18,43753,16.25,73996.8,-2.35,-30.67,-33.31,0,*52
1499126651.42,43754,16.25,74000.0,-2.35,-30.83,-33.31,0,*5F
1499126652.63,43755,16.25,74000.0,-2.35,-31.01,-33.37,0,*53
1499126653.89,43756,16.25,74002.5,-2.35,-30.89,-33.49,0,*58
1499126655.12,43757,16.25,74000.3,-2.35,-31.01,-33.49,0,*58
1499126656.32,43758,16.25,74000.5,-2.35,-31.05,-33.55,0,*5E
1499126657.61,43759,16.25,74002.5,-2.37,-30.89,-33.31,0,*5A
1499126658.82,43760,16.25,74000.5,-2.35,-31.01,-33.37,0,*55
1499126660.05,43761,16.25,74004.0,-2.35,-30.45,-32.79,0,*5E
1499126661.31,43762,16.25,74002.3,-2.35,-30.39,-32.79,0,*56
1499126662.54,43763,16.25,74000.3,-2.35,-30.17,-32.57,0,*57
1499126663.77,43764,16.25,73998.5,-2.35,-30.61,-33.03,0,*51
1499126665.01,43765,16.25,73996.8,-2.35,-30.73,-33.21,0,*53
1499126666.23,43766,16.25,74004.8,-2.35,-31.01,-33.49,0,*5A
1499126667.47,43767,16.25,74004.0,-2.35,-30.73,-33.21,0,*51
1499126668.7,43768,16.25,74000.5,-2.35,-30.51,-33.15,0,*59
1499126669.99,43769,16.25,74008.5,-2.37,-30.73,-33.27,0,*5B
1499126671.2,43770,16.25,74006.8,-2.35,-30.45,-32.91,0,*58
1499126672.43,43771,16.25,74004.0,-2.35,-30.27,-32.63,0,*50
1499126673.69,43772,16.25,73994.0,-2.33,-30.61,-33.03,0,*50
1499126674.94,43773,16.25,73992.8,-2.31,-30.27,-32.75,0,*51
1499126676.19,43774,16.25,73998.3,-2.33,-30.61,-33.03,0,*56
1499126677.45,43775,16.25,73998.8,-2.33,-30.45,-32.79,0,*5D
1499126678.71,43776,16.25,73994.0,-2.33,-30.61,-33.15,0,*53
1499126679.97,43777,16.25,73994.0,-2.33,-30.51,-32.91,0,*5C
1499126681.2,43778,16.25,74000.8,-2.33,-31.01,-33.37,0,*5A
1499126682.45,43779,16.25,74000.8,-2.33,-30.83,-33.37,0,*50
1499126683.7,43780,16.25,74000.5,-2.33,-30.61,-33.15,0,*5A
1499126684.96,43781,16.25,74000.8,-2.33,-30.51,-33.03,0,*5F
1499126686.21,43782,16.25,74002.5,-2.33,-30.61,-33.15,0,*58
1499126687.45,43783,16.25,74006.5,-2.35,-30.61,-33.03,0,*58
1499126688.71,43784,16.25,74002.3,-2.33,-30.83,-33.31,0,*54
1499126689.92,43785,16.25,74006.3,-2.35,-30.83,-33.21,0,*52
1499126691.15,43786,16.25,74014.0,-2.35,-31.01,-33.49,0,*54
1499126692.38,43787,16.25,74008.3,-2.35,-31.01,-33.49,0,*55
1499126693.62,43788,16.25,74014.5,-2.35,-30.51,-32.91,0,*5A
1499126694.9,43789,16.25,74010.8,-2.37,-30.55,-33.09,0,*5D
1499126696.14,43790,16.25,74010.8,-2.35,-30.83,-33.31,0,*57
1499126697.41,43791,16.25,74012.8,-2.37,-30.55,-32.97,0,*52
1499126698.66,43792,16.25,74008.8,-2.35,-30.27,-32.75,0,*5A
1499126699.89,43793,16.25,74006.5,-2.35,-30.61,-33.03,0,*59
1499126701.12,43794,16.25,73998.0,-2.35,-30.73,-33.15,0,*5A
1499126702.36,43795,16.25,74004.8,-2.33,-30.67,-33.03,0,*5F
1499126703.62,43796,16.25,74002.0,-2.33,-30.73,-33.21,0,*59
1499126704.83,43797,16.25,74000.3,-2.35,-30.83,-33.21,0,*51
1499126706.09,43798,16.25,74002.0,-2.35,-30.89,-33.31,0,*55
1499126707.3,43799,16.25,73996.0,-2.35,-31.01,-33.37,0,*53
1499126708.56,43800,16.25,73994.5,-2.35,-30.73,-33.31,0,*5E
1499126709.8,43801,16.25,73974.8,-2.35,-30.83,-33.31,0,*50
1499126711.06,43802,16.25,73974.3,-2.37,-31.05,-33.43,0,*5B
1499126712.33,43803,16.25,73994.5,-2.37,-30.89,-33.37,0,*5C
1499126713.61,43804,16.25,74008.5,-2.33,-30.73,-33.31,0,*5C
1499126714.9,43805,16.25,74016.3,-2.33,-30.89,-33.49,0,*57
1499126716.16,43806,16.25,74008.0,-2.33,-30.73,-33.21,0,*5F
1499126717.42,43807,16.25,74010.3,-2.33,-30.73,-33.21,0,*5E
1499126718.68,43808,16.25,74012.3,-2.33,-31.01,-33.31,0,*54
1499126719.89,43809,16.25,74008.3,-2.31,-31.05,-33.37,0,*55
1499126721.13,43810,16.25,73996.3,-2.35,-30.83,-33.31,0,*50
1499126722.39,43811,16.25,73998.0,-2.33,-30.89,-33.37,0,*5B
1499126723.63,43812,16.25,73998.8,-2.33,-30.83,-33.37,0,*52
1499126724.87,43813,16.25,73992.0,-2.35,-30.89,-33.37,0,*5F
1499126726.13,43814,16.25,73996.5,-2.33,-31.01,-33.49,0,*56
1499126727.36,43815,16.25,74004.0,-2.33,-31.05,-33.55,0,*5E
1499126728.59,43816,16.25,74000.8,-2.35,-30.61,-33.15,0,*5C
1499126729.83,43817,16.25,73986.8,-2.35,-30.27,-32.75,0,*58
1499126731.03,43818,16.25,73986.5,-2.35,-31.05,-33.55,0,*55
1499126732.26,43819,16.25,73990.8,-2.37,-31.05,-33.55,0,*56
1499126733.51,43820,16.25,73986.8,-2.33,-30.83,-33.37,0,*53
1499126734.74,43821,16.25,73994.3,-2.35,-31.01,-33.49,0,*56
1499126735.95,43822,16.25,74000.0,-2.35,-30.67,-33.21,0,*5A
1499126737.18,43823,16.25,74002.5,-2.35,-30.73,-33.21,0,*5E
1499126738.47,43824,16.25,73998.8,-2.37,-30.95,-33.43,0,*57
1499126739.7,43825,16.25,73996.5,-2.35,-31.01,-33.49,0,*52
1499126740.97,43826,16.25,74006.3,-2.37,-31.11,-33.55,0,*5F
1499126742.2,43827,16.25,74004.5,-2.35,-30.61,-33.15,0,*5E
1499126743.44,43828,16.25,74004.3,-2.35,-30.89,-33.37,0,*57
1499126744.65,43829,16.25,74010.5,-2.35,-30.67,-33.15,0,*56
1499126745.85,43830,16.25,74004.8,-2.35,-30.45,-32.91,0,*53
1499126747.08,43831,16.25,73996.0,-2.35,-31.01,-33.49,0,*57
1499126748.37,43832,16.25,73994.3,-2.37,-30.95,-33.61,0,*50
1499126749.57,43833,16.25,73994.8,-2.35,-31.05,-33.55,0,*5C
1499126750.81,43834,16.25,74000.8,-2.35,-31.17,-33.49,0,*55
1499126752.07,43835,16.25,74004.8,-2.37,-31.29,-33.89,0,*57
1499126753.33,43836,16.25,73994.8,-2.37,-30.89,-33.37,0,*5A
1499126754.55,43837,16.25,73982.5,-2.35,-30.83,-33.37,0,*53
1499126755.83,43838,16.25,73998.5,-2.37,-31.11,-33.61,0,*57
1499126757.07,43839,16.25,74002.3,-2.35,-30.95,-33.37,0,*5A
1499126758.34,43840,16.25,74002.0,-2.37,-30.77,-33.37,0,*5A
1499126759.6,43841,16.25,74008.8,-2.37,-31.05,-33.43,0,*5C
1499126760.83,43842,16.25,74006.3,-2.35,-31.17,-33.73,0,*5D
1499126762.12,43843,16.25,73996.8,-2.37,-31.23,-33.73,0,*59
1499126763.38,43844,16.25,73986.0,-2.35,-30.89,-33.31,0,*5B
1499126764.65,43845,16.25,73986.5,-2.35,-30.77,-33.27,0,*5C
1499126765.94,43846,16.25,73990.5,-2.37,-30.89,-33.43,0,*5E
1499126767.16,43847,16.25,73978.0,-2.35,-30.83,-33.37,0,*54
1499126768.39,43848,16.25,73978.5,-2.35,-31.01,-33.49,0,*59
1499126769.68,43849,16.25,73990.3,-2.37,-31.11,-33.73,0,*52
1499126770.94,43850,16.25,73994.5,-2.35,-30.89,-33.31,0,*5E
1499126772.15,43851,16.25,73998.0,-2.35,-30.83,-33.21,0,*54
1499126773.41,43852,16.25,73992.5,-2.37,-30.73,-33.37,0,*5D
1499126774.63,43853,16.25,73988.3,-2.35,-30.67,-33.15,0,*5B
1499126775.86,43854,16.25,73980.0,-2.35,-30.73,-33.15,0,*59
1499126777.07,43855,16.25,73986.5,-2.35,-30.67,-33.03,0,*5A
1499126778.36,43856,16.25,73978.8,-2.37,-30.95,-33.43,0,*52
1499126779.57,43857,16.25,73988.5,-2.35,-31.01,-33.55,0,*5A
1499126780.8,43858,16.25,73992.8,-2.35,-31.01,-33.49,0,*58
1499126782.08,43859,16.25,73990.8,-2.37,-30.51,-32.97,0,*5D
1499126783.31,43860,16.25,73992.5,-2.35,-30.73,-33.21,0,*59
1499126784.58,43861,16.25,73988.8,-2.37,-30.89,-33.37,0,*58
1499126785.84,43862,16.25,73990.3,-2.37,-31.05,-33.43,0,*5D
1499126787.1,43863,16.25,73984.3,-2.37,-30.73,-33.21,0,*58
1499126788.39,43864,16.25,73994.5,-2.37,-30.77,-33.09,0,*51
1499126789.6,43865,16.25,73992.3,-2.35,-30.67,-33.15,0,*5E
1499126790.89,43866,16.25,73992.3,-2.37,-30.89,-33.27,0,*5E
1499126792.18,43867,16.25,73998.5,-2.37,-30.95,-33.43,0,*50
1499126793.42,43868,16.25,74000.3,-2.35,-30.89,-33.37,0,*53
1499126794.68,43869,16.25,74004.3,-2.37,-31.05,-33.43,0,*56
1499126795.88,43870,16.25,73984.8,-2.35,-30.11,-32.57,0,*5C
1499126797.13,43871,16.25,73980.3,-2.35,-30.27,-32.75,0,*58
1499126798.36,43872,16.25,73990.0,-2.35,-30.61,-33.03,0,*59
1499126799.57,43873,16.25,73994.5,-2.35,-31.05,-33.37,0,*5C
1499126800.86,43874,16.25,73998.8,-2.37,-31.23,-33.73,0,*5D
1499126802.07,43875,16.25,73992.8,-2.35,-31.17,-33.67,0,*5C
1499126803.36,43876,16.25,73998.0,-2.37,-31.23,-33.61,0,*5C
1499126804.65,43877,16.25,74000.3,-2.37,-30.89,-33.31,0,*59
1499126805.88,43878,16.25,74002.3,-2.35,-30.73,-33.21,0,*50
1499126807.11,43879,16.25,73998.8,-2.35,-31.05,-33.61,0,*55
1499126808.34,43880,16.25,74002.3,-2.37,-30.67,-33.21,0,*50
1499126809.62,43881,16.25,73998.5,-2.37,-30.51,-32.97,0,*58
1499126810.92,43882,16.25,74002.8,-2.37,-30.89,-33.43,0,*56
1499126812.2,43883,16.25,73998.0,-2.37,-30.73,-33.09,0,*5C
1499126813.47,43884,16.25,74000.3,-2.33,-30.83,-33.31,0,*5B
1499126814.7,43885,16.25,74004.3,-2.35,-30.73,-33.15,0,*55
1499126815.93,43886,16.25,74002.5,-2.35,-30.51,-33.15,0,*56
1499126817.17,43887,16.25,74004.3,-2.35,-30.89,-33.37,0,*52
1499126818.38,43888,16.25,74000.3,-2.35,-30.83,-33.21,0,*50
1499126819.61,43889,16.25,74006.0,-2.35,-31.01,-33.49,0,*54
1499126820.84,43890,16.25,74002.5,-2.37,-31.05,-33.55,0,*57
1499126822.11,43891,16.25,74000.8,-2.37,-30.67,-33.09,0,*5A
1499126823.37,43892,16.25,74000.0,-2.37,-30.67,-33.09,0,*59
1499126824.6,43893,16.25,74000.0,-2.35,-30.45,-32.85,0,*5F
1499126825.84,43894,16.25,73996.0,-2.35,-30.27,-32.63,0,*54
1499126827.1,43895,16.25,73996.5,-2.37,-29.73,-32.01,0,*5A
1499126828.39,43896,16.25,73994.5,-2.33,-29.39,-31.73,0,*55
1499126829.68,43897,16.25,73998.3,-2.33,-30.17,-32.45,0,*56
1499126830.92,43898,16.25,74000.3,-2.33,-29.95,-32.23,0,*5B
1499126832.16,43899,16.25,73988.8,-2.31,-29.23,-31.61,0,*50
1499126833.4,43900,16.25,73990.8,-2.31,-29.57,-31.91,0,*5D
1499126834.66,43901,16.25,73990.8,-2.31,-30.61,-33.09,0,*52
1499126835.95,43902,16.25,73998.0,-2.29,-31.11,-33.49,0,*5A
1499126837.18,43903,16.25,73996.0,-2.29,-31.17,-33.67,0,*51
1499126838.47,43904,16.25,73992.3,-2.29,-31.11,-33.49,0,*5C
1499126839.74,43905,16.25,74000.5,-2.31,-31.11,-33.49,0,*54
1499126840.99,43906,16.25,73998.3,-2.33,-31.05,-33.49,0,*50
1499126842.26,43907,16.25,73996.8,-2.33,-31.23,-33.67,0,*59
1499126843.5,43908,16.25,74000.8,-2.33,-31.17,-33.67,0,*51
1499126844.73,43909,16.25,73998.5,-2.33,-31.17,-33.67,0,*50
1499126845.97,43910,16.25,73998.5,-2.33,-31.17,-33.67,0,*58
1499126847.2,43911,16.25,74000.3,-2.33,-31.33,-33.83,0,*55
1499126848.47,43912,16.25,73994.3,-2.33,-30.83,-33.49,0,*5A
1499126849.73,43913,16.25,73986.0,-2.33,-30.89,-33.37,0,*58
1499126850.99,43914,16.25,73976.0,-2.33,-30.67,-33.31,0,*59
1499126852.25,43915,16.25,73980.8,-2.33,-31.05,-33.49,0,*52
1499126853.48,43916,16.25,73986.3,-2.33,-31.01,-33.55,0,*58
1499126854.71,43917,16.19,73986.0,-2.33,-31.01,-33.37,0,*5D
1499126855.98,43918,16.25,73980.0,-2.33,-30.83,-33.31,0,*5F
1499126857.24,43919,16.25,73970.0,-2.33,-30.73,-33.21,0,*50
1499126858.48,43920,16.25,73990.5,-2.33,-30.67,-33.21,0,*5F
1499126859.71,43921,16.25,73990.5,-2.35,-30.61,-33.03,0,*5E
1499126860.96,43922,16.25,73992.5,-2.31,-30.55,-33.09,0,*54
1499126862.2,43923,16.25,73990.3,-2.33,-30.67,-33.15,0,*5B
1499126863.44,43924,16.25,73986.0,-2.33,-30.67,-33.15,0,*5C
1499126864.68,43925,16.19,73974.3,-2.33,-30.67,-33.21,0,*5A
1499126865.91,43926,16.25,73976.5,-2.33,-31.05,-33.37,0,*5B
1499126867.15,43927,16.25,73994.5,-2.33,-30.67,-33.15,0,*5F
1499126868.4,43928,16.25,74004.8,-2.33,-30.61,-33.03,0,*51
1499126869.67,43929,16.25,74002.8,-2.33,-30.73,-33.21,0,*53
1499126870.93,43930,16.25,73998.0,-2.31,-30.95,-33.43,0,*55
1499126872.17,43931,16.25,74004.5,-2.31,-30.67,-33.09,0,*57
1499126873.43,43932,16.25,74010.5,-2.33,-30.73,-33.15,0,*5E
1499126874.69,43933,16.25,74002.8,-2.33,-30.17,-32.57,0,*5A
1499126875.95,43934,16.25,73982.0,-2.31,-30.39,-32.85,0,*5C
1499126877.18,43935,16.25,73972.8,-2.31,-30.45,-32.97,0,*55
1499126878.42,43936,16.25,73994.3,-2.33,-30.83,-33.21,0,*52
1499126879.68,43937,16.25,74000.8,-2.33,-30.83,-33.31,0,*52
1499126880.95,43938,16.25,74000.3,-2.31,-30.77,-33.09,0,*5F
1499126882.2,43939,16.25,73988.8,-2.33,-30.51,-33.21,0,*52
1499126883.46,43940,16.25,73952.0,-2.31,-30.55,-32.97,0,*56
1499126884.7,43941,16.25,73980.5,-2.33,-30.83,-33.37,0,*55
1499126885.93,43942,16.25,74000.0,-2.31,-30.45,-32.85,0,*56
1499126887.19,43943,16.25,73994.8,-2.31,-30.61,-33.09,0,*54
1499126888.41,43944,16.25,74000.0,-2.31,-30.67,-33.15,0,*58
1499126889.65,43945,16.25,74008.5,-2.31,-30.83,-33.27,0,*52
1499126890.91,43946,16.25,73996.5,-2.31,-30.55,-33.09,0,*56
1499126892.15,43947,16.25,73980.3,-2.31,-30.67,-33.09,0,*56
1499126893.39,43948,16.25,73986.8,-2.31,-30.83,-33.27,0,*5F
1499126894.67,43949,16.19,73986.3,-2.29,-30.61,-33.09,0,*57
1499126895.96,43950,16.25,73982.5,-2.29,-30.95,-33.43,0,*5A
1499126897.2,43951,16.19,73988.5,-2.31,-31.01,-33.43,0,*5E